星链-32866 (STARLINK-32866)

导读

STARLINK-32866是美国于2025年2月1日发射的星链卫星,属于SpaceX公司星链互联网卫星星座项目。该星座旨在为全球提供低延迟、高速率的宽带互联网覆盖,填补偏远地区网络空白。作为星链组网的组成部分,该卫星进一步推进了星座部署进程,支撑星座全球服务能力的完善。

基本信息
目录编号:
62858
目录名称:
STARLINK-32866
国际标识:
2025-022E
轨道中心:
EARTH
卫星名称:
星链-32866
卫星全名:
星链-32866 (STARLINK-32866)
卫星状态:
在轨 (已飞行498 天)
发射日期:
2025-02-01 UTC
国别 :
美国 (US)
星等 :
--
轨道信息
数据来源 国际轨道数据
星历时间: 2026-06-14T03:51:20+0800
12小时前
查看轨道信息
半长轴: 6840.879km
偏心率: 0.0001363
轨道倾角: 53.159°
近地点辐角 106.271°
升交点赤经 41.336°
平近点角 253.844°
近地点: 461.809km
远地点: 463.675km
周期: 93.849分钟
每日圈数: 15.343871
详细信息
固有亮度:
5
最大亮度:
2.5
卫星平台:
Starlink V1.0
覆盖范围:
全球
运营商:
太空探索技术公司
运营商所在国:
美国
制造商(研发单位):
太空探索技术公司
制造商所在国:
美国
使用方式:
暂无
卫星简介
Starlink 计划是 SpaceX 推出的全球卫星互联网项目,通过发射低轨道卫星,为全球尤其是偏远地区提供高速、低延迟的互联网服务。自 2019 年起,Starlink 已部署数千颗卫星,旨在缩小全球数字鸿沟,推动互联网普及。该项目还为军事、航空等行业提供通信支持,带来广泛经济效益。
2D轨道图
3D轨道图
轨道高度分析图
轨道倾角分析图
轨道综合分析图
查看轨道综合分析图